When you browse on this site, cookies collect data to enhance your experience and personalize the content and advertising you see.
Visit our Privacy Policy to learn more. By continuing to use the site, you agree to this use of cookies and data.
  • In Belgien
  • Länderverzeichnis
  • Für 7 Tage
  • Wassertemperatur
  • Satellitenkarten
  • Wetterkarte
  • Widgets
  • user-avatar
    Anmelden

    Stündliche Wetter Brügge

    Heute, 21 Februar, Donnerstag

    Zeit Temperatur Niederschläge Wind Luftdruck Luftfeuchtigkeit
    00:00 +5°C° 0 mm 4 m/S 767 mmHg 90%
    01:00 +5°C° 0 mm 4 m/S 767 mmHg 90%
    02:00 +5°C° 0 mm 4 m/S 767 mmHg 91%
    03:00 +5°C° 0 mm 4 m/S 767 mmHg 91%
    04:00 +5°C° 0 mm 4 m/S 768 mmHg 92%
    05:00 +4°C° 0 mm 4 m/S 768 mmHg 92%
    06:00 +4°C° 0 mm 4 m/S 768 mmHg 92%
    07:00 +5°C° 0 mm 5 m/S 768 mmHg 88%
    08:00 +6°C° 0 mm 5 m/S 768 mmHg 85%
    09:00 +7°C° 0 mm 5 m/S 768 mmHg 81%
    10:00 +8°C° 0 mm 5 m/S 768 mmHg 77%
    11:00 +9°C° 0 mm 5 m/S 769 mmHg 74%
    12:00 +12°C° 0 mm 5 m/S 769 mmHg 70%
    13:00 +12°C° 0 mm 5 m/S 769 mmHg 70%
    14:00 +12°C° 0 mm 5 m/S 769 mmHg 71%
    15:00 +12°C° 0 mm 5 m/S 769 mmHg 71%
    16:00 +11°C° 0 mm 4 m/S 770 mmHg 76%
    17:00 +10°C° 0 mm 4 m/S 770 mmHg 82%
    18:00 +9°C° 0 mm 3 m/S 770 mmHg 87%
    19:00 +8°C° 0 mm 3 m/S 771 mmHg 89%
    20:00 +8°C° 0 mm 3 m/S 771 mmHg 90%
    21:00 +8°C° 0 mm 3 m/S 772 mmHg 92%
    22:00 +8°C° 0 mm 3 m/S 772 mmHg 92%
    23:00 +7°C° 0 mm 3 m/S 773 mmHg 93%

    Morgen, 22 Februar, Freitag

    Zeit Temperatur Niederschläge Wind Luftdruck Luftfeuchtigkeit
    00:00 +7°C° 0 mm 3 m/S 773 mmHg 93%
    01:00 +7°C° 0 mm 2 m/S 773 mmHg 93%
    02:00 +7°C° 0 mm 2 m/S 773 mmHg 93%
    03:00 +7°C° 0 mm 2 m/S 773 mmHg 93%
    04:00 +8°C° 0 mm 1 m/S 774 mmHg 93%
    05:00 +8°C° 0 mm 1 m/S 774 mmHg 93%
    06:00 +8°C° 0 mm 1 m/S 774 mmHg 93%
    07:00 +8°C° 0 mm 0 m/S 775 mmHg 91%
    08:00 +9°C° 0 mm 0 m/S 775 mmHg 89%
    09:00 +10°C° 0 mm 0 m/S 775 mmHg 87%
    10:00 +11°C° 0 mm 0 m/S 775 mmHg 83%
    11:00 +13°C° 0 mm 1 m/S 775 mmHg 79%
    12:00 +14°C° 0 mm 1 m/S 776 mmHg 76%
    13:00 +15°C° 0 mm 1 m/S 775 mmHg 74%
    14:00 +15°C° 0 mm 2 m/S 775 mmHg 73%
    15:00 +15°C° 0 mm 2 m/S 775 mmHg 72%
    16:00 +14°C° 0 mm 2 m/S 775 mmHg 77%
    17:00 +13°C° 0 mm 2 m/S 775 mmHg 81%
    18:00 +11°C° 0 mm 3 m/S 776 mmHg 85%
    19:00 +10°C° 0 mm 3 m/S 776 mmHg 86%
    20:00 +10°C° 0 mm 3 m/S 776 mmHg 87%
    21:00 +8°C° 0 mm 4 m/S 776 mmHg 88%
    22:00 +7°C° 0 mm 4 m/S 776 mmHg 89%
    23:00 +7°C° 0 mm 4 m/S 776 mmHg 90%

    übermorgen, 23 Februar, Samstag

    Zeit Temperatur Niederschläge Wind Luftdruck Luftfeuchtigkeit
    00:00 +6°C° 0 mm 4 m/S 776 mmHg 90%
    01:00 +7°C° 0 mm 3 m/S 776 mmHg 90%
    02:00 +7°C° 0 mm 3 m/S 775 mmHg 91%
    03:00 +5°C° 0 mm 3 m/S 775 mmHg 91%
    04:00 +5°C° 0 mm 3 m/S 775 mmHg 91%
    05:00 +5°C° 0 mm 3 m/S 775 mmHg 91%
    06:00 +4°C° 0 mm 3 m/S 775 mmHg 91%
    07:00 +5°C° 0 mm 3 m/S 775 mmHg 87%
    08:00 +6°C° 0 mm 4 m/S 775 mmHg 82%
    09:00 +7°C° 0 mm 4 m/S 775 mmHg 78%
    10:00 +8°C° 0 mm 4 m/S 775 mmHg 72%
    11:00 +10°C° 0 mm 4 m/S 775 mmHg 65%
    12:00 +12°C° 0 mm 4 m/S 775 mmHg 59%
    13:00 +12°C° 0 mm 4 m/S 775 mmHg 57%
    14:00 +12°C° 0 mm 4 m/S 775 mmHg 55%
    15:00 +13°C° 0 mm 4 m/S 774 mmHg 53%
    16:00 +12°C° 0 mm 4 m/S 774 mmHg 55%
    17:00 +10°C° 0 mm 3 m/S 774 mmHg 57%
    18:00 +9°C° 0 mm 3 m/S 774 mmHg 60%
    19:00 +9°C° 0 mm 3 m/S 775 mmHg 60%
    20:00 +8°C° 0 mm 3 m/S 775 mmHg 60%
    21:00 +7°C° 0 mm 4 m/S 775 mmHg 61%
    22:00 +7°C° 0 mm 3 m/S 775 mmHg 61%
    23:00 +5°C° 0 mm 3 m/S 775 mmHg 60%

    24 Februar, Sonntag

    Zeit Temperatur Niederschläge Wind Luftdruck Luftfeuchtigkeit
    00:00 +5°C° 0 mm 3 m/S 775 mmHg 60%
    01:00 +4°C° 0 mm 3 m/S 775 mmHg 59%
    02:00 +4°C° 0 mm 3 m/S 775 mmHg 58%
    03:00 +4°C° 0 mm 3 m/S 775 mmHg 56%
    04:00 +3°C° 0 mm 3 m/S 775 mmHg 55%
    05:00 +3°C° 0 mm 3 m/S 775 mmHg 53%
    06:00 +3°C° 0 mm 3 m/S 775 mmHg 51%
    07:00 +3°C° 0 mm 3 m/S 775 mmHg 48%
    08:00 +4°C° 0 mm 3 m/S 775 mmHg 46%
    09:00 +5°C° 0 mm 3 m/S 776 mmHg 43%
    10:00 +8°C° 0 mm 3 m/S 776 mmHg 40%
    11:00 +9°C° 0 mm 3 m/S 776 mmHg 37%
    12:00 +12°C° 0 mm 2 m/S 776 mmHg 34%
    13:00 +12°C° 0 mm 2 m/S 776 mmHg 35%
    14:00 +13°C° 0 mm 2 m/S 775 mmHg 37%
    15:00 +13°C° 0 mm 2 m/S 775 mmHg 38%
    16:00 +12°C° 0 mm 2 m/S 775 mmHg 42%
    17:00 +10°C° 0 mm 2 m/S 775 mmHg 46%
    18:00 +10°C° 0 mm 1 m/S 776 mmHg 49%
    19:00 +8°C° 0 mm 2 m/S 776 mmHg 51%
    20:00 +8°C° 0 mm 2 m/S 776 mmHg 52%
    21:00 +7°C° 0 mm 2 m/S 776 mmHg 53%
    22:00 +7°C° 0 mm 2 m/S 776 mmHg 56%
    23:00 +7°C° 0 mm 2 m/S 776 mmHg 59%

    25 Februar, Montag

    Zeit Temperatur Niederschläge Wind Luftdruck Luftfeuchtigkeit
    00:00 +7°C° 0 mm 1 m/S 777 mmHg 62%
    01:00 +6°C° 0 mm 2 m/S 777 mmHg 62%
    02:00 +6°C° 0 mm 2 m/S 777 mmHg 63%
    03:00 +5°C° 0 mm 2 m/S 776 mmHg 64%
    04:00 +5°C° 0 mm 2 m/S 777 mmHg 63%
    05:00 +5°C° 0 mm 2 m/S 777 mmHg 63%
    06:00 +5°C° 0 mm 2 m/S 777 mmHg 62%
    07:00 +7°C° 0 mm 1 m/S 777 mmHg 59%
    08:00 +8°C° 0 mm 1 m/S 777 mmHg 57%
    09:00 +9°C° 0 mm 1 m/S 777 mmHg 54%
    10:00 +10°C° 0 mm 1 m/S 777 mmHg 50%
    11:00 +11°C° 0 mm 1 m/S 777 mmHg 47%
    12:00 +13°C° 0 mm 1 m/S 777 mmHg 43%
    13:00 +13°C° 0 mm 2 m/S 776 mmHg 43%
    14:00 +14°C° 0 mm 2 m/S 776 mmHg 43%
    15:00 +14°C° 0 mm 2 m/S 776 mmHg 44%
    16:00 +13°C° 0 mm 2 m/S 776 mmHg 48%
    17:00 +10°C° 0 mm 3 m/S 776 mmHg 52%
    18:00 +9°C° 0 mm 3 m/S 776 mmHg 56%
    19:00 +9°C° 0 mm 3 m/S 776 mmHg 57%
    20:00 +8°C° 0 mm 3 m/S 776 mmHg 59%
    21:00 +8°C° 0 mm 3 m/S 776 mmHg 60%
    22:00 +8°C° 0 mm 3 m/S 776 mmHg 62%
    23:00 +7°C° 0 mm 3 m/S 776 mmHg 64%

    26 Februar, Dienstag

    Zeit Temperatur Niederschläge Wind Luftdruck Luftfeuchtigkeit
    00:00 +7°C° 0 mm 3 m/S 776 mmHg 65%
    01:00 +7°C° 0 mm 2 m/S 776 mmHg 68%
    02:00 +7°C° 0 mm 2 m/S 775 mmHg 71%
    03:00 +7°C° 0 mm 2 m/S 775 mmHg 74%
    04:00 +6°C° 0 mm 2 m/S 775 mmHg 74%
    05:00 +7°C° 0 mm 1 m/S 775 mmHg 75%
    06:00 +7°C° 0 mm 1 m/S 775 mmHg 75%
    07:00 +7°C° 0 mm 2 m/S 775 mmHg 72%
    08:00 +8°C° 0 mm 2 m/S 775 mmHg 68%
    09:00 +9°C° 0 mm 2 m/S 775 mmHg 65%
    10:00 +12°C° 0 mm 2 m/S 775 mmHg 60%
    11:00 +14°C° 0 mm 2 m/S 775 mmHg 56%
    12:00 +15°C° 0 mm 2 m/S 774 mmHg 51%
    13:00 +16°C° 0 mm 3 m/S 774 mmHg 51%
    14:00 +16°C° 0 mm 3 m/S 774 mmHg 51%
    15:00 +17°C° 0 mm 3 m/S 773 mmHg 51%
    16:00 +14°C° 0 mm 3 m/S 773 mmHg 55%
    17:00 +13°C° 0 mm 3 m/S 773 mmHg 60%
    18:00 +11°C° 0 mm 3 m/S 773 mmHg 64%
    19:00 +11°C° 0 mm 3 m/S 773 mmHg 66%
    20:00 +10°C° 0 mm 3 m/S 773 mmHg 68%
    21:00 +10°C° 0 mm 3 m/S 772 mmHg 70%
    22:00 +9°C° 0 mm 3 m/S 772 mmHg 72%
    23:00 +9°C° 0 mm 3 m/S 772 mmHg 75%
    Mehr zeigen